Home > Weather > Chesapeake > Past weeks

Flag for U.S.A. Weather for the Past 2 Weeks in Chesapeake, Virginia, U.S.A.

Now
45 °F

Clear.


Feels Like: 40 °F
Forecast: 37 / 51 °F
Wind: 9 mph from East

Location: Chesapeake Municipal Airport

Current Time: Feb 8, 2016 at 6:29:35 PM

Latest Report: Feb 8, 2016 at 5:55 PM


Visibility: 10 mi

Pressure: 29.73 "Hg

Humidity: 66%

Dew point: 34 °F

Location of ChesapeakeLocation

Historic Weather in Chesapeake — Graph

°F

Chesapeake Temperature Yesterday

Maximum temperature yesterday: 45 °F (at 9:35 AM)
Minimum temperature yesterday: 36 °F (at 12:15 AM)
Average temperature yesterday: 41 °F

High & Low Weather Summary for the Past Weeks

 TemperatureHumidityPressure
High77 °F (Feb 3, 12:55 PM)93% (Feb 5, 7:15 AM)30.48 "Hg (Feb 5, 7:15 AM)
Low25 °F (Jan 30, 5:15 AM)16% (Jan 30, 3:55 PM)29.59 "Hg (Jan 29, 3:35 AM)
Average48 °F61%30.07 "Hg
* Reported Jan 24 5:55 PM — Feb 8 5:15 PM, Chesapeake, Weather by CustomWeather, © 2016

Note: Actual official high and low records may vary slightly from our data, if they occured in-between our weather recording intervals... More about our weather records

Advertising

Chesapeake Weather History for the Previous 24 Hours

 ConditionsComfort  
Time TempWeatherWind HumidityBarometerVisibility
5:15 PM
Mon, Feb 8
45 °FScattered clouds.10 mph66%29.73 "Hg10 mi
4:55 PM46 °FSunny.9 mph62%29.73 "Hg10 mi
4:15 PM46 °FSunny.13 mph62%29.73 "Hg10 mi
3:55 PM48 °FSunny.8 mph58%29.73 "Hg10 mi
3:35 PM48 °FSunny.13 mph58%29.72 "Hg10 mi
3:15 PM52 °FSunny.3 mph38%29.72 "Hg10 mi
2:55 PM52 °FSunny.3 mph41%29.72 "Hg10 mi
2:35 PM52 °FSunny.No wind38%29.73 "Hg10 mi
2:15 PM50 °FSunny.5 mph43%29.73 "Hg10 mi
1:55 PM50 °FSunny.No wind43%29.73 "Hg10 mi
1:35 PM50 °FSunny.No wind43%29.74 "Hg10 mi
1:15 PM50 °FSunny.3 mph43%29.73 "Hg10 mi
12:55 PM48 °FSunny.5 mph46%29.73 "Hg10 mi
12:35 PM48 °FSunny.No wind43%29.75 "Hg10 mi
12:15 PM48 °FSunny.5 mph43%29.76 "Hg10 mi
11:55 AM48 °FSunny.No wind43%29.77 "Hg10 mi
11:35 AM48 °FSunny.6 mph43%29.79 "Hg10 mi
11:15 AM46 °FSunny.3 mph46%29.79 "Hg10 mi
10:55 AM46 °FSunny.5 mph46%29.80 "Hg10 mi
10:35 AM46 °FSunny.7 mph43%29.80 "Hg10 mi
10:15 AM46 °FSunny.5 mph43%29.80 "Hg10 mi
9:55 AM45 °FSunny.9 mph46%29.79 "Hg10 mi
9:35 AM45 °FSunny.8 mph42%29.79 "Hg10 mi
9:15 AM43 °FSunny.9 mph46%29.79 "Hg10 mi
8:55 AM43 °FSunny.8 mph42%29.79 "Hg10 mi
8:35 AM41 °FSunny.7 mph45%29.79 "Hg10 mi
8:15 AM39 °FSunny.9 mph48%29.79 "Hg10 mi
7:55 AM39 °FSunny.7 mph48%29.79 "Hg7 mi
7:35 AM37 °FSunny.8 mph52%29.79 "Hg10 mi
7:15 AM37 °FSunny.6 mph52%29.78 "Hg10 mi
6:55 AM37 °FClear.5 mph56%29.77 "Hg10 mi
6:35 AM37 °FClear.5 mph52%29.75 "Hg10 mi
6:15 AM39 °FPassing clouds.5 mph52%29.76 "Hg10 mi
5:55 AM41 °FPassing clouds.7 mph45%29.76 "Hg10 mi
5:35 AM41 °FPassing clouds.7 mph45%29.75 "Hg10 mi
5:15 AM43 °FClear.7 mph42%29.74 "Hg10 mi
4:55 AM43 °FClear.7 mph42%29.72 "Hg10 mi
4:35 AM43 °FClear.3 mph46%29.71 "Hg10 mi
4:15 AM43 °FClear.8 mph42%29.70 "Hg10 mi
3:55 AM43 °FClear.7 mph46%29.69 "Hg10 mi
3:35 AM43 °FClear.12 mph46%29.68 "Hg10 mi
3:15 AM43 °FPassing clouds.12 mph46%29.67 "Hg10 mi
2:55 AM43 °FPassing clouds.13 mph46%29.68 "Hg10 mi
2:35 AM43 °FOvercast.13 mph49%29.66 "Hg10 mi
2:15 AM43 °FOvercast.13 mph49%29.67 "Hg10 mi
1:55 AM43 °FOvercast.15 mph53%29.66 "Hg10 mi
1:35 AM45 °FOvercast.14 mph49%29.65 "Hg10 mi
1:15 AM45 °FOvercast.15 mph53%29.65 "Hg10 mi
12:55 AM45 °FOvercast.16 mph53%29.66 "Hg10 mi
12:35 AM45 °FLight rain. Mostly cloudy.12 mph57%29.67 "Hg10 mi
12:15 AM45 °FMostly cloudy.14 mph53%29.67 "Hg10 mi
11:55 PM
Sun, Feb 7
45 °FOvercast.12 mph53%29.68 "Hg10 mi
11:15 PM43 °FDrizzle. Mostly cloudy.13 mph61%29.70 "Hg10 mi
10:15 PM41 °FLight rain. Overcast.10 mph70%29.73 "Hg10 mi
9:15 PM41 °FRain. Overcast.12 mph70%29.76 "Hg7 mi
8:55 PM43 °FLight rain. Overcast.13 mph61%29.76 "Hg10 mi
7:55 PM43 °FDrizzle. Overcast.12 mph57%29.77 "Hg10 mi
7:35 PM43 °FRain. Overcast.12 mph57%29.79 "Hg10 mi
7:15 PM43 °FDrizzle. Overcast.14 mph53%29.79 "Hg10 mi
6:55 PM43 °FLight rain. Overcast.14 mph57%29.80 "Hg10 mi
6:15 PM45 °FLight rain. Overcast.15 mph49%29.80 "Hg10 mi
Weather by CustomWeather, © 2016

See weather overviewHow to use our weather pages